[TLELIST] Archives

 

[list_settings.list_name] Current TLEs

November 21st 2009 PST

HST 1 20580U 90037B 09321.06096865 .00000344 00000-0 13596-4 0 4779 2 20580 028.4692 184.5336 0003392 108.0013 252.0927 15.00854380872848 ISS (ZARYA) 1 25544U 98067A 09324.43334491 .00017676 00000-0 11248-3 0 176 2 25544 051.6468 224.0710 0005954 358.2302 346.9065 15.76533111630560 CXO 1 25867U 99040B 09325.12500000 .00000308 00000-0 10000-3 0 3952 2 25867 066.1462 063.2047 7814958 275.2584 354.4399 00.37806188 5601 ____________________________________________________________________ These 2-Line ...Continue Reading

[list_settings.list_name] Current TLEs

November 20th 2009 PST

HST 1 20580U 90037B 09321.06096865 .00000344 00000-0 13596-4 0 4779 2 20580 028.4692 184.5336 0003392 108.0013 252.0927 15.00854380872848 ISS (ZARYA) 1 25544U 98067A 09323.31184226 .00015165 00000-0 97272-4 0 118 2 25544 051.6476 229.8533 0006114 351.7713 104.0556 15.76492553630391 CXO 1 25867U 99040B 09322.50000000 .00000206 00000-0 10000-3 0 3931 2 25867 066.1369 063.3028 7810077 275.2515 357.1156 00.37807137 5593 ____________________________________________________________________ These 2-Line ...Continue Reading

[list_settings.list_name] Current TLEs

November 19th 2009 PST

HST 1 20580U 90037B 09321.06096865 .00000344 00000-0 13596-4 0 4779 2 20580 028.4692 184.5336 0003392 108.0013 252.0927 15.00854380872848 ISS (ZARYA) 1 25544U 98067A 09322.36202938 .00021740 00000-0 13772-3 0 65 2 25544 051.6453 234.7452 0006116 346.7770 114.9269 15.76468433630245 CXO 1 25867U 99040B 09322.50000000 .00000206 00000-0 10000-3 0 3931 2 25867 066.1369 063.3028 7810077 275.2515 357.1156 00.37807137 5593 ____________________________________________________________________ These 2-Line ...Continue Reading

[list_settings.list_name] Current TLEs

November 18th 2009 PST

HST 1 20580U 90037B 09321.06096865 .00000344 00000-0 13596-4 0 4779 2 20580 028.4692 184.5336 0003392 108.0013 252.0927 15.00854380872848 ISS (ZARYA) 1 25544U 98067A 09321.34676779 .00020535 00000-0 13062-3 0 07 2 25544 051.6445 239.9771 0006023 342.0529 113.9369 15.76419300630086 CXO 1 25867U 99040B 09319.87500000 .00000243 00000-0 10000-3 0 3922 2 25867 066.1273 063.4010 7802859 275.2543 359.7808 00.37807471 5581 ____________________________________________________________________ These 2-Line ...Continue Reading

[list_settings.list_name] Current TLEs

November 17th 2009 PST

HST 1 20580U 90037B 09318.06856198 .00000375 00000-0 15976-4 0 4765 2 20580 028.4698 204.0640 0003320 077.3835 282.7149 15.00853550872395 ISS (ZARYA) 1 25544U 98067A 09320.39693447 .00019449 00000-0 12418-3 0 9951 2 25544 051.6444 244.8718 0006080 338.6182 123.3765 15.76374636629939 CXO 1 25867U 99040B 09319.87500000 .00000243 00000-0 10000-3 0 3922 2 25867 066.1273 063.4010 7802859 275.2543 359.7808 00.37807471 5581 ____________________________________________________________________ These 2-Line ...Continue Reading

[list_settings.list_name] Current TLEs

November 16th 2009 PST

HST 1 20580U 90037B 09318.06856198 .00000375 00000-0 15976-4 0 4765 2 20580 028.4698 204.0640 0003320 077.3835 282.7149 15.00853550872395 ISS (ZARYA) 1 25544U 98067A 09319.38194719 .00021223 00000-0 13531-3 0 9899 2 25544 051.6445 250.1004 0006115 332.7631 125.4247 15.76339334629777 CXO 1 25867U 99040B 09319.87500000 .00000243 00000-0 10000-3 0 3922 2 25867 066.1273 063.4010 7802859 275.2543 359.7808 00.37807471 5581 ____________________________________________________________________ These 2-Line ...Continue Reading

[list_settings.list_name] Current TLEs

November 15th 2009 PST

HST 1 20580U 90037B 09318.06856198 .00000375 00000-0 15976-4 0 4765 2 20580 028.4698 204.0640 0003320 077.3835 282.7149 15.00853550872395 ISS (ZARYA) 1 25544U 98067A 09318.36630868 .00023834 00000-0 15162-3 0 9832 2 25544 051.6441 255.3310 0006252 330.8247 120.0119 15.76305733629612 CXO 1 25867U 99040B 09317.20833333 .00000413 00000-0 10000-3 0 3913 2 25867 066.1105 063.4742 7795200 275.2819 356.7275 00.37806367 5571 ____________________________________________________________________ These 2-Line ...Continue Reading

[list_settings.list_name] Current TLEs

November 14th 2009 PST

HST 1 20580U 90037B 09316.14012007 .00000368 00000-0 15401-4 0 4759 2 20580 028.4700 216.6501 0003288 057.2556 302.8388 15.00852723872103 ISS (ZARYA) 1 25544U 98067A 09317.36098219 .00024388 00000-0 15537-3 0 9773 2 25544 051.6440 260.5138 0006154 327.7350 174.4156 15.76259167629453 CXO 1 25867U 99040B 09317.20833333 .00000413 00000-0 10000-3 0 3913 2 25867 066.1105 063.4742 7795200 275.2819 356.7275 00.37806367 5571 ____________________________________________________________________ These 2-Line ...Continue Reading

[list_settings.list_name] Current TLEs

November 13th 2009 PST

HST 1 20580U 90037B 09316.14012007 .00000368 00000-0 15401-4 0 4759 2 20580 028.4700 216.6501 0003288 057.2556 302.8388 15.00852723872103 ISS (ZARYA) 1 25544U 98067A 09316.34575997 .00028903 00000-0 18358-3 0 9730 2 25544 051.6440 265.7415 0006233 324.2055 173.2518 15.76220100629296 CXO 1 25867U 99040B 09317.20833333 .00000413 00000-0 10000-3 0 3913 2 25867 066.1105 063.4742 7795200 275.2819 356.7275 00.37806367 5571 ____________________________________________________________________ These 2-Line ...Continue Reading

[list_settings.list_name] Current TLEs

November 12th 2009 PST

HST 1 20580U 90037B 09314.21167642 .00000370 00000-0 15550-4 0 4748 2 20580 028.4702 229.2389 0003225 036.9337 323.1509 15.00851973871815 ISS (ZARYA) 1 25544U 98067A 09315.39560249 .00030302 00000-0 19266-3 0 9665 2 25544 051.6438 270.6371 0006222 321.2814 181.0786 15.76170061629145 CXO 1 25867U 99040B 09314.58333333 .00000517 00000-0 10000-3 0 3900 2 25867 066.0933 063.5731 7790503 275.2994 359.3159 00.37808396 5566 ____________________________________________________________________ These 2-Line ...Continue Reading
  • This mailing list is a public mailing list - anyone may join or leave, at any time.
  • This mailing list is announce-only.

International Space Station (ISS) / Hubble Space Telescope (HST) / Chandra X-Ray Observatory Orbital Data via EMAIL

Privacy Policy:

Private list